Satellite-Ground Cal/Val Site Overpasses Predictions

Prediction of Satellite NPP Overpassing Cal/Val Site: Antarctic Dome C

Ground Cal/Val Site Location: Latitude: -75.10, Longitude: 123.35; Satellite-Ground Site NADIR distance within 100 km.

Table of predicted overpasses for the next 14.0 days since TLE Epoch: 7/23/2022
Interval Starting Time Ending Time Minimum Distance Time Minimum Distance (km)
1 07/23/2022 14:36:39 07/23/2022 14:36:54 07/23/2022 14:36:46 84.83
2 07/24/2022 07:38:12 07/24/2022 07:38:40 07/24/2022 07:38:26 35.89
3 07/25/2022 07:19:27 07/25/2022 07:19:46 07/25/2022 07:19:37 74.06
4 07/27/2022 15:01:44 07/27/2022 15:02:07 07/27/2022 15:01:55 59.60
5 07/28/2022 14:42:54 07/28/2022 14:43:20 07/28/2022 14:43:07 49.52
6 07/29/2022 07:44:36 07/29/2022 07:44:56 07/29/2022 07:44:46 71.48
7 07/30/2022 07:25:44 07/30/2022 07:26:11 07/30/2022 07:25:58 36.36
8 08/01/2022 15:08:14 08/01/2022 15:08:19 08/01/2022 15:08:16 97.72
9 08/02/2022 14:49:12 08/02/2022 14:49:41 08/02/2022 14:49:27 13.74
